• In Österreich
  • Länderverzeichnis
  • Für 7 Tage
  • Wassertemperatur
  • Satellitenkarten
  • Wetterkarte
  • News
  • Widgets
  • user-avatar
    Anmelden

    Stündliche Wetter Cordoba

    Heute, 16 November, Freitag

    Zeit Temperatur Niederschläge Wind Luftdruck Luftfeuchtigkeit
    00:00 +21°C° 0 mm 5 m/S 723 mmHg 65%
    01:00 +20°C° 0 mm 5 m/S 723 mmHg 68%
    02:00 +19°C° 0 mm 6 m/S 724 mmHg 71%
    03:00 +17°C° 0 mm 5 m/S 724 mmHg 72%
    04:00 +17°C° 0 mm 4 m/S 724 mmHg 74%
    05:00 +17°C° 0 mm 4 m/S 724 mmHg 75%
    06:00 +18°C° 0 mm 4 m/S 724 mmHg 73%
    07:00 +18°C° 0 mm 3 m/S 724 mmHg 70%
    08:00 +19°C° 0 mm 3 m/S 724 mmHg 68%
    09:00 +21°C° 0 mm 3 m/S 724 mmHg 63%
    10:00 +24°C° 0 mm 3 m/S 724 mmHg 58%
    11:00 +26°C° 0 mm 3 m/S 723 mmHg 53%
    12:00 +27°C° 0 mm 4 m/S 723 mmHg 51%
    13:00 +28°C° 0 mm 5 m/S 722 mmHg 48%
    14:00 +30°C° 0 mm 5 m/S 721 mmHg 46%
    15:00 +30°C° 0 mm 5 m/S 721 mmHg 47%
    16:00 +29°C° 0 mm 6 m/S 720 mmHg 48%
    17:00 +29°C° 0 mm 6 m/S 719 mmHg 49%
    18:00 +28°C° 0 mm 5 m/S 719 mmHg 55%
    19:00 +26°C° 0 mm 4 m/S 719 mmHg 61%
    20:00 +25°C° 0 mm 3 m/S 719 mmHg 67%
    21:00 +24°C° 0 mm 3 m/S 719 mmHg 69%
    22:00 +22°C° 0 mm 3 m/S 720 mmHg 71%
    23:00 +23°C° 0 mm 2 m/S 720 mmHg 73%

    Morgen, 17 November, Samstag

    Zeit Temperatur Niederschläge Wind Luftdruck Luftfeuchtigkeit
    00:00 +21°C° 0 mm 2 m/S 719 mmHg 73%
    01:00 +21°C° 0 mm 2 m/S 719 mmHg 73%
    02:00 +21°C° 0 mm 2 m/S 718 mmHg 73%
    03:00 +21°C° 0.1 mm 2 m/S 718 mmHg 73%
    04:00 +20°C° 0.1 mm 2 m/S 718 mmHg 73%
    05:00 +20°C° 0.1 mm 2 m/S 717 mmHg 74%
    06:00 +24°C° 0.1 mm 3 m/S 718 mmHg 67%
    07:00 +26°C° 0.1 mm 4 m/S 718 mmHg 60%
    08:00 +28°C° 0.1 mm 4 m/S 718 mmHg 53%
    09:00 +30°C° 0 mm 5 m/S 719 mmHg 48%
    10:00 +33°C° 0 mm 6 m/S 719 mmHg 42%
    11:00 +35°C° 0 mm 7 m/S 720 mmHg 36%
    12:00 +33°C° 0.1 mm 8 m/S 720 mmHg 41%
    13:00 +32°C° 0.1 mm 8 m/S 719 mmHg 46%
    14:00 +29°C° 0.1 mm 8 m/S 719 mmHg 51%
    15:00 +28°C° 0 mm 8 m/S 720 mmHg 49%
    16:00 +28°C° 0 mm 8 m/S 720 mmHg 48%
    17:00 +27°C° 0 mm 8 m/S 720 mmHg 46%
    18:00 +24°C° 0 mm 7 m/S 721 mmHg 46%
    19:00 +22°C° 0 mm 6 m/S 722 mmHg 47%
    20:00 +21°C° 0 mm 5 m/S 723 mmHg 47%
    21:00 +20°C° 0 mm 5 m/S 724 mmHg 44%
    22:00 +19°C° 0 mm 5 m/S 725 mmHg 42%
    23:00 +17°C° 0 mm 5 m/S 725 mmHg 40%

    übermorgen, 18 November, Sonntag

    Zeit Temperatur Niederschläge Wind Luftdruck Luftfeuchtigkeit
    00:00 +18°C° 0 mm 4 m/S 725 mmHg 38%
    01:00 +17°C° 0 mm 4 m/S 725 mmHg 36%
    02:00 +17°C° 0 mm 3 m/S 725 mmHg 34%
    03:00 +16°C° 0 mm 3 m/S 725 mmHg 34%
    04:00 +16°C° 0 mm 3 m/S 725 mmHg 34%
    05:00 +15°C° 0 mm 2 m/S 725 mmHg 33%
    06:00 +17°C° 0 mm 2 m/S 726 mmHg 32%
    07:00 +19°C° 0 mm 2 m/S 727 mmHg 30%
    08:00 +20°C° 0 mm 2 m/S 727 mmHg 29%
    09:00 +23°C° 0 mm 2 m/S 727 mmHg 27%
    10:00 +24°C° 0 mm 3 m/S 728 mmHg 26%
    11:00 +25°C° 0 mm 3 m/S 728 mmHg 24%
    12:00 +26°C° 0 mm 3 m/S 727 mmHg 24%
    13:00 +27°C° 0 mm 4 m/S 726 mmHg 24%
    14:00 +28°C° 0 mm 4 m/S 726 mmHg 25%
    15:00 +27°C° 0 mm 5 m/S 725 mmHg 27%
    16:00 +27°C° 0 mm 5 m/S 725 mmHg 29%
    17:00 +26°C° 0 mm 6 m/S 724 mmHg 32%
    18:00 +23°C° 0 mm 5 m/S 724 mmHg 36%
    19:00 +21°C° 0 mm 4 m/S 725 mmHg 41%
    20:00 +19°C° 0 mm 3 m/S 725 mmHg 45%
    21:00 +19°C° 0 mm 3 m/S 725 mmHg 46%
    22:00 +18°C° 0 mm 3 m/S 725 mmHg 46%
    23:00 +17°C° 0 mm 3 m/S 725 mmHg 47%

    19 November, Montag

    Zeit Temperatur Niederschläge Wind Luftdruck Luftfeuchtigkeit
    00:00 +17°C° 0 mm 3 m/S 725 mmHg 47%
    01:00 +17°C° 0 mm 3 m/S 724 mmHg 48%
    02:00 +17°C° 0 mm 3 m/S 724 mmHg 49%
    03:00 +17°C° 0 mm 3 m/S 724 mmHg 50%
    04:00 +16°C° 0 mm 3 m/S 724 mmHg 51%
    05:00 +16°C° 0 mm 3 m/S 723 mmHg 51%
    06:00 +18°C° 0 mm 4 m/S 724 mmHg 48%
    07:00 +20°C° 0 mm 4 m/S 724 mmHg 45%
    08:00 +22°C° 0 mm 5 m/S 725 mmHg 42%
    09:00 +24°C° 0 mm 6 m/S 725 mmHg 40%
    10:00 +26°C° 0 mm 6 m/S 725 mmHg 37%
    11:00 +28°C° 0 mm 6 m/S 725 mmHg 35%
    12:00 +29°C° 0 mm 6 m/S 724 mmHg 35%
    13:00 +29°C° 0 mm 6 m/S 723 mmHg 34%
    14:00 +30°C° 0 mm 7 m/S 723 mmHg 33%
    15:00 +30°C° 0 mm 6 m/S 722 mmHg 35%
    16:00 +29°C° 0 mm 6 m/S 722 mmHg 36%
    17:00 +29°C° 0 mm 6 m/S 721 mmHg 38%
    18:00 +27°C° 0 mm 5 m/S 721 mmHg 43%
    19:00 +25°C° 0 mm 4 m/S 722 mmHg 48%
    20:00 +22°C° 0 mm 3 m/S 722 mmHg 53%
    21:00 +21°C° 0 mm 3 m/S 723 mmHg 55%
    22:00 +21°C° 0 mm 3 m/S 723 mmHg 56%
    23:00 +20°C° 0 mm 3 m/S 723 mmHg 57%

    20 November, Dienstag

    Zeit Temperatur Niederschläge Wind Luftdruck Luftfeuchtigkeit
    00:00 +20°C° 0 mm 3 m/S 723 mmHg 58%
    01:00 +19°C° 0 mm 3 m/S 723 mmHg 59%
    02:00 +19°C° 0 mm 3 m/S 722 mmHg 59%
    03:00 +19°C° 0 mm 3 m/S 722 mmHg 60%
    04:00 +19°C° 0 mm 3 m/S 722 mmHg 60%
    05:00 +18°C° 0 mm 3 m/S 722 mmHg 60%
    06:00 +20°C° 0 mm 3 m/S 723 mmHg 55%
    07:00 +22°C° 0 mm 4 m/S 723 mmHg 50%
    08:00 +25°C° 0 mm 4 m/S 724 mmHg 45%
    09:00 +27°C° 0 mm 5 m/S 724 mmHg 42%
    10:00 +29°C° 0 mm 5 m/S 724 mmHg 40%
    11:00 +32°C° 0 mm 6 m/S 724 mmHg 37%
    12:00 +33°C° 0 mm 6 m/S 723 mmHg 35%
    13:00 +33°C° 0 mm 6 m/S 723 mmHg 34%
    14:00 +34°C° 0 mm 6 m/S 722 mmHg 33%
    15:00 +34°C° 0 mm 6 m/S 722 mmHg 34%
    16:00 +33°C° 0 mm 6 m/S 721 mmHg 35%
    17:00 +33°C° 0 mm 6 m/S 721 mmHg 35%
    18:00 +29°C° 0 mm 5 m/S 721 mmHg 40%
    19:00 +27°C° 0 mm 4 m/S 721 mmHg 45%
    20:00 +25°C° 0 mm 3 m/S 722 mmHg 50%
    21:00 +24°C° 0 mm 3 m/S 722 mmHg 51%
    22:00 +22°C° 0 mm 3 m/S 722 mmHg 51%
    23:00 +21°C° 0 mm 2 m/S 722 mmHg 52%

    21 November, Mittwoch

    Zeit Temperatur Niederschläge Wind Luftdruck Luftfeuchtigkeit
    00:00 +21°C° 0 mm 2 m/S 722 mmHg 51%
    01:00 +21°C° 0 mm 2 m/S 722 mmHg 51%
    02:00 +21°C° 0 mm 2 m/S 721 mmHg 51%
    03:00 +20°C° 0 mm 2 m/S 721 mmHg 52%
    04:00 +20°C° 0 mm 2 m/S 721 mmHg 52%
    05:00 +20°C° 0 mm 2 m/S 721 mmHg 53%
    06:00 +22°C° 0 mm 3 m/S 721 mmHg 50%
    07:00 +25°C° 0 mm 4 m/S 722 mmHg 48%
    08:00 +28°C° 0 mm 5 m/S 722 mmHg 45%
    09:00 +30°C° 0 mm 5 m/S 722 mmHg 42%
    10:00 +33°C° 0 mm 6 m/S 721 mmHg 38%
    11:00 +34°C° 0 mm 6 m/S 721 mmHg 35%
    12:00 +35°C° 0 mm 7 m/S 720 mmHg 34%
    13:00 +36°C° 0 mm 7 m/S 720 mmHg 34%
    14:00 +38°C° 0 mm 7 m/S 719 mmHg 33%
    15:00 +38°C° 0 mm 7 m/S 719 mmHg 35%
    16:00 +36°C° 0 mm 6 m/S 719 mmHg 36%
    17:00 +36°C° 0 mm 6 m/S 718 mmHg 38%
    18:00 +34°C° 0.2 mm 5 m/S 719 mmHg 44%
    19:00 +32°C° 0.2 mm 4 m/S 719 mmHg 51%
    20:00 +28°C° 0.2 mm 3 m/S 720 mmHg 58%
    21:00 +27°C° 1.4 mm 2 m/S 720 mmHg 65%
    22:00 +26°C° 1.4 mm 2 m/S 720 mmHg 71%
    23:00 +25°C° 1.4 mm 2 m/S 720 mmHg 78%
    Mehr zeigen